Arctic Village, AK

8:33 PM AKDT on March 22, 2017 (GMT -0800)
Arctic Village

Weather History for PARC - September, 2014

Change the Weather History Date:

Thursday, September 4, 2014

  Actual Average Record
Temperature  
Mean Temperature 32 °F -  
Max Temperature 41 °F 54 °F 66 °F (1991)
Min Temperature 24 °F 30 °F 15 °F (1990)
Degree Days  
Heating Degree Days 32    
Moisture  
Dew Point 15 °F    
Average Humidity 50    
Maximum Humidity 69    
Minimum Humidity 35    
Precipitation  
Precipitation 0.00 in - - ()
Sea Level Pressure  
Sea Level Pressure 29.91 in    
Wind  
Wind Speed 12 mph (West)    
Max Wind Speed 22 mph    
Max Gust Speed 28 mph    
Visibility 10 miles    
Events      
Averages and records for this station are not official NWS values.
T = Trace of Precipitation, MM = Missing Value Source: NWS Daily Summary

Daily Weather History Graph

Daily Weather History Graph

Search for Another Location

Airport or City:

Trip Planner

Search our weather history database for the weather conditions in past years. The results will help you decide how hot, cold, wet, or windy it might be!

Date:

Astronomy

Sep. 04, 2014 Rise Set
Actual Time 6:19 AM AKDT 9:00 PM AKDT
Civil Twilight 5:16 AM AKDT 10:03 PM AKDT
Nautical Twilight 3:38 AM AKDT 11:37 PM AKDT
Astronomical Twilight Sun does not rise Sun does not rise
Moon 7:23 PM AKDT (9/4) No Moon Set
Length of Visible Light 16h 46m
Length of Day
14h 40m
Waxing Gibbous, 76% of the Moon is Illuminated
Sep 4
Waxing Gibbous
Sep 8
Full
Sep 15
Last Quarter
Sep 23
New
Oct 1
First Quarter

Hourly Weather History & Observations

Time (AKDT) Temp. Windchill Dew Point Humidity Pressure Visibility Wind Dir Wind Speed Gust Speed Precip Events Conditions
3:16 AM 28.4 °F 18.0 °F 19.4 °F 69% 29.89 in 10.0 mi WSW 12.7 mph - N/A   Clear
3:36 AM 28.4 °F 18.5 °F 17.6 °F 64% 29.89 in 10.0 mi WSW 11.5 mph - N/A   Clear
3:56 AM 26.6 °F 16.2 °F 17.6 °F 69% 29.89 in 10.0 mi WSW 11.5 mph - N/A   Clear
4:16 AM 26.6 °F 15.7 °F 17.6 °F 69% 29.89 in 10.0 mi WSW 12.7 mph - N/A   Clear
4:36 AM 28.4 °F 18.0 °F 15.8 °F 59% 29.89 in 10.0 mi WSW 12.7 mph - N/A   Scattered Clouds
4:56 AM 28.4 °F 18.0 °F 17.6 °F 64% 29.88 in 10.0 mi WSW 12.7 mph - N/A   Overcast
5:16 AM 28.4 °F 17.5 °F 17.6 °F 64% 29.88 in 10.0 mi WSW 13.8 mph - N/A   Mostly Cloudy
5:36 AM 28.4 °F 19.1 °F 17.6 °F 64% 29.88 in 10.0 mi WSW 10.4 mph - N/A   Clear
5:56 AM 28.4 °F 19.1 °F 17.6 °F 64% 29.88 in 10.0 mi WSW 10.4 mph - N/A   Clear
6:16 AM 26.6 °F 16.2 °F 17.6 °F 69% 29.88 in 10.0 mi WSW 11.5 mph - N/A   Clear
6:36 AM 28.4 °F 17.5 °F 17.6 °F 64% 29.88 in 10.0 mi WSW 13.8 mph - N/A   Clear
6:56 AM 26.6 °F 16.8 °F 17.6 °F 69% 29.88 in 10.0 mi WSW 10.4 mph - N/A   Clear
7:16 AM 26.6 °F 16.2 °F 15.8 °F 64% 29.88 in 10.0 mi SW 11.5 mph - N/A   Clear
7:36 AM 26.6 °F 16.2 °F 15.8 °F 64% 29.88 in 10.0 mi SW 11.5 mph - N/A   Clear
7:56 AM 28.4 °F 19.7 °F 17.6 °F 64% 29.88 in 10.0 mi SW 9.2 mph - N/A   Clear
8:16 AM 28.4 °F 19.1 °F 17.6 °F 64% 29.87 in 10.0 mi SW 10.4 mph - N/A   Clear
8:36 AM 30.2 °F 21.3 °F 17.6 °F 60% 29.87 in 10.0 mi SW 10.4 mph - N/A   Clear
8:56 AM 30.2 °F 21.9 °F 17.6 °F 60% 29.87 in 10.0 mi SSW 9.2 mph - N/A   Clear
9:16 AM 30.2 °F 21.3 °F 17.6 °F 60% 29.87 in 10.0 mi SSW 10.4 mph - N/A   Clear
9:36 AM 32.0 °F 23.0 °F 17.6 °F 55% 29.87 in 10.0 mi SW 11.5 mph - N/A   Clear
9:56 AM 33.8 °F 24.3 °F 17.6 °F 52% 29.86 in 10.0 mi WSW 13.8 mph - N/A   Clear
10:16 AM 35.6 °F 26.2 °F 17.6 °F 48% 29.86 in 10.0 mi WSW 15.0 mph - N/A   Clear
10:36 AM 35.6 °F 28.0 °F 17.6 °F 48% 29.86 in 10.0 mi WSW 10.4 mph - N/A   Clear
10:56 AM 35.6 °F 27.1 °F 15.8 °F 44% 29.86 in 10.0 mi SW 12.7 mph 17.3 mph N/A   Clear
11:16 AM 37.4 °F 28.9 °F 17.6 °F 45% 29.86 in 10.0 mi SW 13.8 mph 17.3 mph N/A   Clear
11:36 AM 37.4 °F 28.9 °F 17.6 °F 45% 29.86 in 10.0 mi West 13.8 mph 18.4 mph N/A   Clear
11:56 AM 37.4 °F 28.2 °F 15.8 °F 41% 29.86 in 10.0 mi West 16.1 mph 23.0 mph N/A   Clear
12:16 PM 37.4 °F 28.5 °F 15.8 °F 41% 29.86 in 10.0 mi West 15.0 mph - N/A   Partly Cloudy
12:36 PM 37.4 °F 28.9 °F 15.8 °F 41% 29.86 in 10.0 mi WSW 13.8 mph - N/A   Partly Cloudy
12:56 PM 39.2 °F 31.2 °F 15.8 °F 39% 29.86 in 10.0 mi WSW 13.8 mph 20.7 mph N/A   Partly Cloudy
1:16 PM 39.2 °F 30.2 °F 17.6 °F 42% 29.86 in 10.0 mi WSW 17.3 mph 20.7 mph N/A   Scattered Clouds
1:36 PM 39.2 °F 30.2 °F 15.8 °F 39% 29.86 in 10.0 mi West 17.3 mph 23.0 mph N/A   Mostly Cloudy
1:56 PM 37.4 °F 26.9 °F 14.0 °F 38% 29.87 in 10.0 mi WNW 20.7 mph 25.3 mph N/A   Partly Cloudy
2:16 PM 41.0 °F 31.4 °F 15.8 °F 36% 29.86 in 10.0 mi West 21.9 mph - N/A   Partly Cloudy
2:36 PM 39.2 °F 29.6 °F 15.8 °F 39% 29.87 in 10.0 mi West 19.6 mph 27.6 mph N/A   Partly Cloudy
2:56 PM 39.2 °F 29.8 °F 15.8 °F 39% 29.87 in 10.0 mi WNW 18.4 mph 25.3 mph N/A   Clear
3:16 PM 39.2 °F 29.3 °F 15.8 °F 39% 29.88 in 10.0 mi West 20.7 mph 27.6 mph N/A   Partly Cloudy
3:36 PM 39.2 °F 30.2 °F 17.6 °F 42% 29.89 in 10.0 mi WNW 17.3 mph 24.2 mph N/A   Partly Cloudy
3:56 PM 39.2 °F 33.6 °F 15.8 °F 39% 29.90 in 10.0 mi NW 8.1 mph 19.6 mph N/A   Clear
4:16 PM 39.2 °F 29.8 °F 14.0 °F 36% 29.90 in 10.0 mi WNW 18.4 mph 24.2 mph N/A   Clear
4:36 PM 39.2 °F 31.2 °F 14.0 °F 36% 29.91 in 10.0 mi NW 13.8 mph 19.6 mph N/A   Clear
4:56 PM 37.4 °F 27.5 °F 12.2 °F 36% 29.91 in 10.0 mi NW 18.4 mph 21.9 mph N/A   Clear
5:16 PM 37.4 °F 29.3 °F 12.2 °F 36% 29.92 in 10.0 mi NW 12.7 mph 23.0 mph N/A   Clear
5:36 PM 37.4 °F 29.3 °F 12.2 °F 36% 29.93 in 10.0 mi NW 12.7 mph 17.3 mph N/A   Partly Cloudy
5:56 PM 37.4 °F 28.9 °F 12.2 °F 36% 29.93 in 10.0 mi NW 13.8 mph - N/A   Partly Cloudy
6:16 PM 37.4 °F 29.3 °F 14.0 °F 38% 29.94 in 10.0 mi WNW 12.7 mph - N/A   Partly Cloudy
6:36 PM 37.4 °F 29.8 °F 12.2 °F 36% 29.94 in 10.0 mi NW 11.5 mph - N/A   Clear
6:56 PM 37.4 °F 28.5 °F 12.2 °F 36% 29.95 in 10.0 mi NW 15.0 mph - N/A   Clear
7:16 PM 35.6 °F 30.7 °F 10.4 °F 35% 29.96 in 10.0 mi WNW 5.8 mph - N/A   Clear
7:36 PM 35.6 °F 28.6 °F 12.2 °F 38% 29.96 in 10.0 mi NW 9.2 mph - N/A   Clear
7:56 PM 33.8 °F 27.0 °F 12.2 °F 41% 29.97 in 10.0 mi NW 8.1 mph - N/A   Clear
8:16 PM 33.8 °F 30.8 °F 12.2 °F 41% 29.98 in 10.0 mi North 3.5 mph - N/A   Clear
8:36 PM 32.0 °F 25.6 °F 12.2 °F 44% 29.98 in 10.0 mi NNW 6.9 mph - N/A   Clear
8:56 PM 30.2 °F 26.7 °F 12.2 °F 47% 29.98 in 10.0 mi East 3.5 mph - N/A   Clear
9:16 PM 30.2 °F 24.3 °F 15.8 °F 55% 29.99 in 10.0 mi ENE 5.8 mph - N/A   Clear
9:36 PM 30.2 °F 26.7 °F 14.0 °F 51% 30.00 in 10.0 mi North 3.5 mph - N/A   Clear
9:56 PM 30.2 °F 24.3 °F 12.2 °F 47% 30.00 in 10.0 mi North 5.8 mph - N/A   Clear
10:16 PM 28.4 °F - 12.2 °F 51% 30.01 in 10.0 mi Calm Calm - N/A   Clear
10:36 PM 28.4 °F 22.2 °F 12.2 °F 51% 30.02 in 10.0 mi NE 5.8 mph - N/A   Clear
10:56 PM 26.6 °F 21.2 °F 17.6 °F 69% 30.03 in 10.0 mi SW 4.6 mph - N/A   Clear
11:16 PM 28.4 °F - 15.8 °F 59% 30.03 in 10.0 mi Calm Calm - N/A   Clear
11:36 PM 24.8 °F 19.1 °F 12.2 °F 59% 30.04 in 10.0 mi NW 4.6 mph - N/A   Clear
11:56 PM 24.8 °F 17.9 °F 12.2 °F 59% 30.04 in 10.0 mi NW 5.8 mph - N/A   Clear